Time,TemperatureF,DewpointF,PressureIn,WindDirection,WindDirectionDegrees,WindSpeedMPH,WindSpeedGustMPH,Humidity,HourlyPrecipIn,Conditions,Clouds,dailyrainin,SoftwareType,DateUTC
2013-09-08 00:01:00,73.0,69.6,28.97,North,0,0.0,0.0,89,0.00,,,0.00,WUHU21623XXSP,2013-09-08 05:01:00,
2013-09-08 00:06:00,72.9,69.5,28.97,North,0,0.0,0.0,89,0.00,,,0.00,WUHU21623XXSP,2013-09-08 05:06:00,
2013-09-08 00:11:00,72.9,69.5,28.97,North,0,0.0,0.0,89,0.00,,,0.00,WUHU21623XXSP,2013-09-08 05:11:00,
2013-09-08 00:16:00,72.7,69.3,28.97,North,0,0.0,0.0,89,0.00,,,0.00,WUHU21623XXSP,2013-09-08 05:16:00,
2013-09-08 00:21:00,72.7,69.3,28.97,North,0,0.0,0.0,89,0.00,,,0.00,WUHU21623XXSP,2013-09-08 05:21:00,
2013-09-08 00:26:00,72.5,69.1,28.97,North,0,0.0,0.0,89,0.00,,,0.00,WUHU21623XXSP,2013-09-08 05:26:00,
2013-09-08 00:31:00,72.3,68.9,28.97,North,0,0.0,0.0,89,0.00,,,0.00,WUHU21623XXSP,2013-09-08 05:31:00,
2013-09-08 00:36:00,72.3,69.3,28.97,North,0,0.0,0.0,90,0.00,,,0.00,WUHU21623XXSP,2013-09-08 05:36:00,
2013-09-08 00:41:00,72.1,69.1,28.97,North,0,0.0,0.0,90,0.00,,,0.00,WUHU21623XXSP,2013-09-08 05:41:00,
2013-09-08 00:46:00,72.1,69.1,28.97,North,0,0.0,0.0,90,0.00,,,0.00,WUHU21623XXSP,2013-09-08 05:46:00,
2013-09-08 00:51:00,72.1,69.1,28.97,North,0,0.0,0.0,90,0.00,,,0.00,WUHU21623XXSP,2013-09-08 05:51:00,
2013-09-08 00:56:00,72.0,68.9,28.97,North,0,0.0,0.0,90,0.00,,,0.00,WUHU21623XXSP,2013-09-08 05:56:00,
2013-09-08 01:01:00,71.8,68.7,28.98,North,0,0.0,0.0,90,0.00,,,0.00,WUHU21623XXSP,2013-09-08 06:01:00,
2013-09-08 01:06:00,71.4,68.4,28.98,North,0,0.0,0.0,90,0.00,,,0.00,WUHU21623XXSP,2013-09-08 06:06:00,
2013-09-08 01:11:00,71.4,68.4,28.98,North,0,0.0,0.0,90,0.00,,,0.00,WUHU21623XXSP,2013-09-08 06:11:00,
2013-09-08 01:16:00,71.4,68.4,28.97,North,0,0.0,0.0,90,0.00,,,0.00,WUHU21623XXSP,2013-09-08 06:16:00,
2013-09-08 01:21:00,71.4,68.4,28.98,North,0,0.0,0.0,90,0.00,,,0.00,WUHU21623XXSP,2013-09-08 06:21:00,
2013-09-08 01:26:00,71.4,68.4,28.98,North,0,0.0,0.0,90,0.00,,,0.00,WUHU21623XXSP,2013-09-08 06:26:00,
2013-09-08 01:31:00,71.4,68.4,28.99,North,0,0.0,0.0,90,0.00,,,0.00,WUHU21623XXSP,2013-09-08 06:31:00,
2013-09-08 01:36:00,71.4,68.4,28.99,North,0,0.0,0.0,90,0.00,,,0.00,WUHU21623XXSP,2013-09-08 06:36:00,
2013-09-08 01:41:00,71.2,68.2,28.99,North,0,0.0,0.0,90,0.00,,,0.00,WUHU21623XXSP,2013-09-08 06:41:00,
2013-09-08 01:46:00,71.2,68.2,28.99,North,0,0.0,0.0,90,0.00,,,0.00,WUHU21623XXSP,2013-09-08 06:46:00,
2013-09-08 01:51:00,71.2,68.2,28.99,North,0,0.0,0.0,90,0.00,,,0.00,WUHU21623XXSP,2013-09-08 06:51:00,
2013-09-08 01:56:00,71.2,68.2,28.99,North,0,0.0,0.0,90,0.00,,,0.00,WUHU21623XXSP,2013-09-08 06:56:00,
2013-09-08 02:01:00,71.2,68.2,28.99,NNE,22,0.0,0.0,90,0.00,,,0.00,WUHU21623XXSP,2013-09-08 07:01:00,
2013-09-08 02:06:00,71.2,68.2,28.99,North,0,0.0,0.0,90,0.00,,,0.00,WUHU21623XXSP,2013-09-08 07:06:00,
2013-09-08 02:11:00,71.2,67.8,28.99,North,0,0.0,0.0,89,0.00,,,0.00,WUHU21623XXSP,2013-09-08 07:11:00,
2013-09-08 02:16:00,71.2,67.8,28.99,North,0,0.0,0.0,89,0.00,,,0.00,WUHU21623XXSP,2013-09-08 07:16:00,
2013-09-08 02:21:00,71.2,67.8,28.99,North,0,0.0,0.0,89,0.00,,,0.00,WUHU21623XXSP,2013-09-08 07:21:00,
2013-09-08 02:26:00,71.2,67.8,29.00,NNE,22,0.0,0.0,89,0.00,,,0.00,WUHU21623XXSP,2013-09-08 07:26:00,
2013-09-08 02:31:00,71.2,68.2,28.99,NE,45,0.0,0.0,90,0.00,,,0.00,WUHU21623XXSP,2013-09-08 07:31:00,
2013-09-08 02:36:00,71.2,68.2,28.99,NW,315,0.0,0.0,90,0.00,,,0.00,WUHU21623XXSP,2013-09-08 07:36:00,
2013-09-08 02:41:00,71.2,68.2,28.99,North,0,0.0,0.0,90,0.00,,,0.00,WUHU21623XXSP,2013-09-08 07:41:00,
2013-09-08 02:46:00,71.2,68.2,28.99,North,0,0.0,0.0,90,0.00,,,0.00,WUHU21623XXSP,2013-09-08 07:46:00,
2013-09-08 02:51:00,71.2,68.2,28.99,NNE,22,0.0,0.0,90,0.00,,,0.00,WUHU21623XXSP,2013-09-08 07:51:00,
2013-09-08 02:56:00,71.1,68.0,28.99,NW,315,0.0,0.0,90,0.00,,,0.00,WUHU21623XXSP,2013-09-08 07:56:00,
2013-09-08 03:01:00,71.2,68.2,29.00,North,0,0.0,0.0,90,0.00,,,0.00,WUHU21623XXSP,2013-09-08 08:01:00,
2013-09-08 03:06:00,71.2,68.2,29.00,NNE,22,0.0,0.0,90,0.00,,,0.00,WUHU21623XXSP,2013-09-08 08:06:00,
2013-09-08 03:11:00,71.2,68.5,28.99,WNW,292,0.0,0.0,91,0.00,,,0.00,WUHU21623XXSP,2013-09-08 08:11:00,
2013-09-08 03:16:00,71.1,68.3,29.00,NNW,337,0.0,0.0,91,0.00,,,0.00,WUHU21623XXSP,2013-09-08 08:16:00,
2013-09-08 03:21:00,71.1,68.3,29.00,NNW,337,0.0,0.0,91,0.00,,,0.00,WUHU21623XXSP,2013-09-08 08:21:00,
2013-09-08 03:26:00,70.9,68.1,28.99,NNE,22,0.0,0.0,91,0.00,,,0.00,WUHU21623XXSP,2013-09-08 08:26:00,
2013-09-08 03:31:00,70.9,68.1,28.99,North,0,0.0,0.0,91,0.00,,,0.00,WUHU21623XXSP,2013-09-08 08:31:00,
2013-09-08 03:36:00,70.9,68.1,28.99,NNE,22,0.0,0.0,91,0.00,,,0.00,WUHU21623XXSP,2013-09-08 08:36:00,
2013-09-08 03:41:00,70.7,67.9,28.99,NW,315,0.0,0.0,91,0.00,,,0.00,WUHU21623XXSP,2013-09-08 08:41:00,
2013-09-08 03:46:00,70.5,67.8,28.99,NNE,22,0.0,0.0,91,0.00,,,0.00,WUHU21623XXSP,2013-09-08 08:46:00,
2013-09-08 03:51:00,70.3,67.6,28.99,SW,225,0.0,0.0,91,0.00,,,0.00,WUHU21623XXSP,2013-09-08 08:51:00,
2013-09-08 03:56:00,70.3,67.6,28.99,NNE,22,0.0,0.0,91,0.00,,,0.00,WUHU21623XXSP,2013-09-08 08:56:00,
2013-09-08 04:01:00,70.3,67.6,28.99,NW,315,0.0,0.0,91,0.00,,,0.00,WUHU21623XXSP,2013-09-08 09:01:00,
2013-09-08 04:06:00,70.2,67.1,28.99,East,90,0.0,0.0,90,0.00,,,0.00,WUHU21623XXSP,2013-09-08 09:06:00,
2013-09-08 04:11:00,70.0,66.9,28.99,WNW,292,0.0,0.0,90,0.00,,,0.00,WUHU21623XXSP,2013-09-08 09:11:00,
2013-09-08 04:16:00,69.8,66.7,28.99,NNE,22,0.0,0.0,90,0.00,,,0.00,WUHU21623XXSP,2013-09-08 09:16:00,
2013-09-08 04:21:00,69.8,66.7,28.99,ENE,67,0.0,0.0,90,0.00,,,0.00,WUHU21623XXSP,2013-09-08 09:21:00,
2013-09-08 04:26:00,69.8,66.7,28.99,ENE,67,0.0,0.0,90,0.00,,,0.00,WUHU21623XXSP,2013-09-08 09:26:00,
2013-09-08 04:31:00,69.6,66.6,28.99,NNE,22,0.0,0.0,90,0.00,,,0.00,WUHU21623XXSP,2013-09-08 09:31:00,
2013-09-08 04:36:00,69.8,66.7,29.00,NNW,337,0.0,0.0,90,0.00,,,0.00,WUHU21623XXSP,2013-09-08 09:36:00,
2013-09-08 04:42:00,69.6,66.6,28.99,North,0,0.0,0.0,90,0.00,,,0.00,WUHU21623XXSP,2013-09-08 09:42:00,
2013-09-08 04:47:00,69.6,66.6,29.00,ENE,67,0.0,0.0,90,0.00,,,0.00,WUHU21623XXSP,2013-09-08 09:47:00,
2013-09-08 04:52:00,69.8,66.7,29.00,NNE,22,0.0,1.3,90,0.00,,,0.00,WUHU21623XXSP,2013-09-08 09:52:00,
2013-09-08 04:57:00,69.8,66.7,29.00,NNE,22,0.0,1.3,90,0.00,,,0.00,WUHU21623XXSP,2013-09-08 09:57:00,
2013-09-08 05:02:00,69.8,66.7,28.99,NNW,337,0.0,2.5,90,0.00,,,0.00,WUHU21623XXSP,2013-09-08 10:02:00,
2013-09-08 05:07:00,69.6,66.6,28.99,NNW,337,0.0,2.5,90,0.00,,,0.00,WUHU21623XXSP,2013-09-08 10:07:00,
2013-09-08 05:12:00,69.6,66.6,29.00,North,0,0.0,0.0,90,0.00,,,0.00,WUHU21623XXSP,2013-09-08 10:12:00,
2013-09-08 05:17:00,69.6,66.6,28.99,NNW,337,0.0,1.6,90,0.00,,,0.00,WUHU21623XXSP,2013-09-08 10:17:00,
2013-09-08 05:22:00,69.6,66.6,28.99,NW,315,0.0,1.6,90,0.00,,,0.00,WUHU21623XXSP,2013-09-08 10:22:00,
2013-09-08 05:27:00,69.6,66.6,29.00,SSW,202,0.0,0.0,90,0.00,,,0.00,WUHU21623XXSP,2013-09-08 10:27:00,
2013-09-08 05:32:00,69.6,66.6,29.00,North,0,0.0,0.0,90,0.00,,,0.00,WUHU21623XXSP,2013-09-08 10:32:00,
2013-09-08 05:37:00,69.6,66.6,28.99,NNE,22,0.0,0.0,90,0.00,,,0.00,WUHU21623XXSP,2013-09-08 10:37:00,
2013-09-08 05:42:00,69.8,66.7,29.00,WNW,292,0.0,0.0,90,0.00,,,0.00,WUHU21623XXSP,2013-09-08 10:42:00,
2013-09-08 05:47:00,69.8,67.0,29.00,NNE,22,0.0,0.0,91,0.00,,,0.00,WUHU21623XXSP,2013-09-08 10:47:00,
2013-09-08 05:52:00,69.8,67.0,29.00,NE,45,0.0,0.0,91,0.00,,,0.00,WUHU21623XXSP,2013-09-08 10:52:00,
2013-09-08 05:57:00,70.0,66.9,29.00,North,0,0.0,0.0,90,0.00,,,0.00,WUHU21623XXSP,2013-09-08 10:57:00,
2013-09-08 06:02:00,69.8,66.7,29.00,NNE,22,0.0,0.0,90,0.00,,,0.00,WUHU21623XXSP,2013-09-08 11:02:00,
2013-09-08 06:07:00,70.0,66.9,29.00,NNE,22,0.0,0.0,90,0.00,,,0.00,WUHU21623XXSP,2013-09-08 11:07:00,
2013-09-08 06:12:00,69.8,66.9,29.01,NNE,22,0.0,0.0,90,0.00,,,0.00,WUHU21623XXSP,2013-09-08 11:12:00,
2013-09-08 06:17:00,69.8,66.7,29.01,South,180,0.0,0.0,90,0.00,,,0.00,WUHU21623XXSP,2013-09-08 11:17:00,
2013-09-08 06:22:00,69.6,66.6,29.01,WNW,292,0.0,0.0,90,0.00,,,0.00,WUHU21623XXSP,2013-09-08 11:22:00,
2013-09-08 06:27:00,69.6,66.6,29.02,NW,315,0.0,0.0,90,0.00,,,0.00,WUHU21623XXSP,2013-09-08 11:27:00,
2013-09-08 06:32:00,69.4,66.4,29.02,North,0,0.0,0.0,90,0.00,,,0.00,WUHU21623XXSP,2013-09-08 11:32:00,
2013-09-08 06:37:00,69.3,66.2,29.02,North,0,0.0,0.0,90,0.00,,,0.00,WUHU21623XXSP,2013-09-08 11:37:00,
2013-09-08 06:42:00,69.1,66.0,29.02,West,270,0.0,0.0,90,0.00,,,0.00,WUHU21623XXSP,2013-09-08 11:42:00,
2013-09-08 06:47:00,68.7,65.7,29.03,North,0,0.0,0.0,90,0.00,,,0.00,WUHU21623XXSP,2013-09-08 11:47:00,
2013-09-08 06:52:00,68.7,65.7,29.03,NE,45,0.0,0.0,90,0.00,,,0.00,WUHU21623XXSP,2013-09-08 11:52:00,
2013-09-08 06:57:00,68.5,65.1,29.03,NNE,22,0.0,0.0,89,0.00,,,0.00,WUHU21623XXSP,2013-09-08 11:57:00,
2013-09-08 07:02:00,68.4,65.0,29.03,North,0,0.0,0.0,89,0.00,,,0.00,WUHU21623XXSP,2013-09-08 12:02:00,
2013-09-08 07:07:00,68.2,64.8,29.03,NE,45,0.0,0.0,89,0.00,,,0.00,WUHU21623XXSP,2013-09-08 12:07:00,
2013-09-08 07:12:00,68.2,64.8,29.03,NE,45,0.0,0.0,89,0.00,,,0.00,WUHU21623XXSP,2013-09-08 12:12:00,
2013-09-08 07:17:00,68.0,64.6,29.04,NNE,22,0.0,0.0,89,0.00,,,0.00,WUHU21623XXSP,2013-09-08 12:17:00,
2013-09-08 07:22:00,67.8,64.4,29.04,ENE,67,0.0,0.0,89,0.00,,,0.00,WUHU21623XXSP,2013-09-08 12:22:00,
2013-09-08 07:27:00,67.8,64.4,29.04,WSW,247,0.0,0.0,89,0.00,,,0.00,WUHU21623XXSP,2013-09-08 12:27:00,
2013-09-08 07:32:00,67.8,64.4,29.03,SSW,202,0.0,0.0,89,0.00,,,0.00,WUHU21623XXSP,2013-09-08 12:32:00,
2013-09-08 07:37:00,67.6,64.3,29.03,SSE,157,0.0,0.0,89,0.00,,,0.00,WUHU21623XXSP,2013-09-08 12:37:00,
2013-09-08 07:42:00,67.6,64.3,29.04,ENE,67,0.0,0.0,89,0.00,,,0.00,WUHU21623XXSP,2013-09-08 12:42:00,
2013-09-08 07:47:00,67.6,63.9,29.04,SW,225,3.8,3.8,88,0.00,,,0.00,WUHU21623XXSP,2013-09-08 12:47:00,
2013-09-08 07:52:00,67.5,63.8,29.04,SSE,157,0.0,3.8,88,0.00,,,0.00,WUHU21623XXSP,2013-09-08 12:52:00,
2013-09-08 07:57:00,67.3,63.6,29.04,SSE,157,0.0,0.0,88,0.00,,,0.00,WUHU21623XXSP,2013-09-08 12:57:00,
2013-09-08 08:02:00,67.3,63.6,29.04,North,0,0.0,0.0,88,0.00,,,0.00,WUHU21623XXSP,2013-09-08 13:02:00,
2013-09-08 08:07:00,67.3,63.6,29.04,SE,135,0.0,0.0,88,0.00,,,0.00,WUHU21623XXSP,2013-09-08 13:07:00,
2013-09-08 08:12:00,67.3,63.6,29.03,NE,45,0.0,0.0,88,0.00,,,0.00,WUHU21623XXSP,2013-09-08 13:12:00,
2013-09-08 08:17:00,67.3,63.6,29.03,East,90,0.0,0.0,88,0.00,,,0.00,WUHU21623XXSP,2013-09-08 13:17:00,
2013-09-08 08:22:00,67.3,63.6,29.03,SE,135,0.0,0.0,87,0.00,,,0.00,WUHU21623XXSP,2013-09-08 13:22:00,
2013-09-08 08:27:00,67.3,63.2,29.04,NNE,22,1.3,1.3,87,0.00,,,0.00,WUHU21623XXSP,2013-09-08 13:27:00,
2013-09-08 08:32:00,67.3,63.2,29.04,North,0,0.0,1.3,87,0.00,,,0.00,WUHU21623XXSP,2013-09-08 13:32:00,
2013-09-08 08:37:00,67.3,63.2,29.04,SE,135,0.0,3.6,87,0.00,,,0.00,WUHU21623XXSP,2013-09-08 13:37:00,
2013-09-08 08:42:00,67.3,63.2,29.04,ESE,112,0.0,3.6,87,0.00,,,0.00,WUHU21623XXSP,2013-09-08 13:42:00,
2013-09-08 08:47:00,67.3,63.2,29.05,NNE,22,0.0,0.0,87,0.00,,,0.00,WUHU21623XXSP,2013-09-08 13:47:00,
2013-09-08 08:52:00,67.3,63.2,29.04,NE,45,0.0,0.0,87,0.00,,,0.00,WUHU21623XXSP,2013-09-08 13:52:00,
2013-09-08 08:57:00,67.3,63.2,29.04,South,180,0.0,0.0,87,0.00,,,0.00,WUHU21623XXSP,2013-09-08 13:57:00,
2013-09-08 09:02:00,67.3,63.2,29.04,NNE,22,0.0,0.0,87,0.00,,,0.00,WUHU21623XXSP,2013-09-08 14:02:00,
2013-09-08 09:07:00,67.6,63.6,29.05,North,0,0.0,0.0,87,0.00,,,0.00,WUHU21623XXSP,2013-09-08 14:07:00,
2013-09-08 09:12:00,67.6,63.6,29.05,SSW,202,0.0,0.0,87,0.00,,,0.00,WUHU21623XXSP,2013-09-08 14:12:00,
2013-09-08 09:17:00,67.8,63.8,29.05,East,90,0.0,0.0,87,0.00,,,0.00,WUHU21623XXSP,2013-09-08 14:17:00,
2013-09-08 09:22:00,67.8,63.5,29.05,SW,225,0.0,0.0,86,0.00,,,0.00,WUHU21623XXSP,2013-09-08 14:22:00,
2013-09-08 09:27:00,67.8,63.5,29.05,NE,45,0.0,0.0,86,0.00,,,0.00,WUHU21623XXSP,2013-09-08 14:27:00,
2013-09-08 09:32:00,68.2,63.8,29.05,NNW,337,0.0,0.0,86,0.00,,,0.00,WUHU21623XXSP,2013-09-08 14:32:00,
2013-09-08 09:37:00,68.2,63.8,29.05,SSW,202,0.0,0.0,86,0.00,,,0.00,WUHU21623XXSP,2013-09-08 14:37:00,
2013-09-08 09:42:00,68.4,63.7,29.05,ENE,67,0.0,0.0,85,0.00,,,0.00,WUHU21623XXSP,2013-09-08 14:42:00,
2013-09-08 09:47:00,68.5,63.8,29.05,South,180,0.0,0.0,85,0.00,,,0.00,WUHU21623XXSP,2013-09-08 14:47:00,
2013-09-08 09:52:00,68.5,63.8,29.06,SSE,157,0.0,0.0,85,0.00,,,0.00,WUHU21623XXSP,2013-09-08 14:52:00,
2013-09-08 09:57:00,68.7,64.0,29.05,NNW,337,0.0,0.0,85,0.00,,,0.00,WUHU21623XXSP,2013-09-08 14:57:00,
2013-09-08 10:02:00,68.7,64.3,29.06,NNE,22,0.0,0.0,86,0.00,,,0.00,WUHU21623XXSP,2013-09-08 15:02:00,
2013-09-08 10:07:00,69.4,64.7,29.06,NE,45,0.0,0.0,85,0.00,,,0.00,WUHU21623XXSP,2013-09-08 15:07:00,
2013-09-08 10:12:00,69.6,64.8,29.06,NE,45,0.0,0.0,85,0.00,,,0.00,WUHU21623XXSP,2013-09-08 15:12:00,
2013-09-08 10:17:00,69.6,64.5,29.06,South,180,0.0,0.0,84,0.00,,,0.00,WUHU21623XXSP,2013-09-08 15:17:00,
2013-09-08 10:22:00,69.6,64.5,29.07,ESE,112,0.0,0.0,84,0.00,,,0.00,WUHU21623XXSP,2013-09-08 15:22:00,
2013-09-08 10:27:00,69.8,64.7,29.07,ENE,67,0.0,1.3,84,0.00,,,0.00,WUHU21623XXSP,2013-09-08 15:27:00,
2013-09-08 10:32:00,70.0,64.9,29.07,WSW,247,0.0,1.3,84,0.00,,,0.00,WUHU21623XXSP,2013-09-08 15:32:00,
2013-09-08 10:37:00,70.2,65.0,29.07,ESE,112,0.0,0.0,83,0.00,,,0.00,WUHU21623XXSP,2013-09-08 15:37:00,
2013-09-08 10:42:00,70.5,65.1,29.07,WSW,247,0.0,0.0,83,0.00,,,0.00,WUHU21623XXSP,2013-09-08 15:42:00,
2013-09-08 10:47:00,70.5,65.1,29.07,SSE,157,0.0,0.0,83,0.00,,,0.00,WUHU21623XXSP,2013-09-08 15:47:00,
2013-09-08 10:52:00,70.3,64.9,29.07,SE,135,0.0,0.0,83,0.00,,,0.00,WUHU21623XXSP,2013-09-08 15:52:00,
2013-09-08 10:57:00,70.3,64.9,29.07,ENE,67,0.0,0.0,83,0.00,,,0.00,WUHU21623XXSP,2013-09-08 15:57:00,
2013-09-08 11:02:00,70.9,65.1,29.07,ESE,112,2.0,2.0,82,0.00,,,0.00,WUHU21623XXSP,2013-09-08 16:02:00,
2013-09-08 11:07:00,71.4,65.3,29.07,ESE,112,0.0,2.0,81,0.00,,,0.00,WUHU21623XXSP,2013-09-08 16:07:00,
2013-09-08 11:12:00,71.4,65.3,29.07,SE,135,0.9,0.9,81,0.00,,,0.00,WUHU21623XXSP,2013-09-08 16:12:00,
2013-09-08 11:17:00,71.8,65.6,29.07,SE,135,3.6,3.6,81,0.00,,,0.00,WUHU21623XXSP,2013-09-08 16:17:00,
2013-09-08 11:22:00,72.1,65.7,29.07,ESE,112,0.0,3.6,80,0.00,,,0.00,WUHU21623XXSP,2013-09-08 16:22:00,
2013-09-08 11:27:00,72.1,65.7,29.06,ENE,67,0.0,3.6,80,0.00,,,0.00,WUHU21623XXSP,2013-09-08 16:27:00,
2013-09-08 11:32:00,72.3,65.8,29.07,SE,135,0.0,0.9,80,0.00,,,0.00,WUHU21623XXSP,2013-09-08 16:32:00,
2013-09-08 11:37:00,72.5,65.6,29.07,ENE,67,0.0,0.0,79,0.00,,,0.00,WUHU21623XXSP,2013-09-08 16:37:00,
2013-09-08 11:42:00,72.7,65.6,29.07,ENE,67,0.0,0.0,79,0.00,,,0.00,WUHU21623XXSP,2013-09-08 16:42:00,
2013-09-08 11:48:00,72.7,65.8,29.07,South,180,1.6,1.6,79,0.00,,,0.00,WUHU21623XXSP,2013-09-08 16:48:00,
2013-09-08 11:53:00,73.0,66.2,29.07,SE,135,0.0,1.6,79,0.00,,,0.00,WUHU21623XXSP,2013-09-08 16:53:00,
2013-09-08 11:58:00,73.0,66.2,29.06,ENE,67,0.0,2.9,79,0.00,,,0.00,WUHU21623XXSP,2013-09-08 16:58:00,
2013-09-08 12:03:00,73.0,65.8,29.06,NNE,22,0.0,2.9,78,0.00,,,0.00,WUHU21623XXSP,2013-09-08 17:03:00,
2013-09-08 12:08:00,73.0,66.2,29.06,ESE,112,0.0,0.9,79,0.00,,,0.00,WUHU21623XXSP,2013-09-08 17:08:00,
2013-09-08 12:13:00,73.0,66.2,29.06,SE,135,0.0,0.0,79,0.00,,,0.00,WUHU21623XXSP,2013-09-08 17:13:00,
2013-09-08 12:18:00,73.0,66.0,29.06,ESE,112,0.0,0.0,78,0.00,,,0.00,WUHU21623XXSP,2013-09-08 17:18:00,
2013-09-08 12:23:00,73.0,66.2,29.05,ESE,112,0.0,0.0,79,0.00,,,0.00,WUHU21623XXSP,2013-09-08 17:23:00,
2013-09-08 12:28:00,73.0,65.8,29.05,NE,45,0.0,0.0,78,0.00,,,0.00,WUHU21623XXSP,2013-09-08 17:28:00,
2013-09-08 12:33:00,73.2,66.0,29.05,ENE,67,1.1,1.1,78,0.00,,,0.00,WUHU21623XXSP,2013-09-08 17:33:00,
2013-09-08 12:38:00,73.4,66.0,29.05,NNE,22,0.0,1.1,78,0.00,,,0.00,WUHU21623XXSP,2013-09-08 17:38:00,
2013-09-08 12:43:00,73.4,66.2,29.05,NE,45,0.0,0.0,78,0.00,,,0.00,WUHU21623XXSP,2013-09-08 17:43:00,
2013-09-08 12:48:00,73.6,66.3,29.04,North,0,0.0,0.0,78,0.00,,,0.00,WUHU21623XXSP,2013-09-08 17:48:00,
2013-09-08 12:53:00,73.8,66.5,29.04,ESE,112,0.0,0.0,78,0.00,,,0.00,WUHU21623XXSP,2013-09-08 17:53:00,
2013-09-08 12:58:00,73.9,66.7,29.04,SSE,157,0.0,0.7,78,0.00,,,0.00,WUHU21623XXSP,2013-09-08 17:58:00,
2013-09-08 13:03:00,74.3,66.7,29.04,SSE,157,0.0,0.7,77,0.00,,,0.00,WUHU21623XXSP,2013-09-08 18:03:00,
2013-09-08 13:08:00,74.8,67.2,29.04,ESE,112,0.0,0.0,77,0.00,,,0.00,WUHU21623XXSP,2013-09-08 18:08:00,
2013-09-08 13:13:00,74.8,66.8,29.04,North,0,0.0,0.0,76,0.00,,,0.00,WUHU21623XXSP,2013-09-08 18:13:00,
2013-09-08 13:18:00,74.7,66.6,29.03,ENE,67,0.0,0.0,76,0.00,,,0.00,WUHU21623XXSP,2013-09-08 18:18:00,
2013-09-08 13:23:00,74.5,66.8,29.03,ESE,112,0.0,0.0,77,0.00,,,0.00,WUHU21623XXSP,2013-09-08 18:23:00,
2013-09-08 13:28:00,74.7,66.4,29.03,NNE,22,0.0,0.0,77,0.00,,,0.00,WUHU21623XXSP,2013-09-08 18:28:00,
2013-09-08 13:33:00,74.8,67.2,29.03,South,180,3.6,3.6,77,0.00,,,0.00,WUHU21623XXSP,2013-09-08 18:33:00,
2013-09-08 13:38:00,75.0,67.0,29.02,SE,135,0.0,6.9,76,0.00,,,0.00,WUHU21623XXSP,2013-09-08 18:38:00,
2013-09-08 13:43:00,75.0,67.0,29.02,SE,135,4.7,6.9,76,0.00,,,0.00,WUHU21623XXSP,2013-09-08 18:43:00,
2013-09-08 13:48:00,74.8,66.8,29.02,ENE,67,0.0,4.7,76,0.00,,,0.00,WUHU21623XXSP,2013-09-08 18:48:00,
2013-09-08 13:53:00,74.7,66.6,29.02,ENE,67,0.0,0.0,76,0.00,,,0.00,WUHU21623XXSP,2013-09-08 18:53:00,
2013-09-08 13:58:00,74.5,66.4,29.03,SSE,157,4.5,4.5,76,0.00,,,0.00,WUHU21623XXSP,2013-09-08 18:58:00,
2013-09-08 14:03:00,74.7,66.6,29.03,NNW,337,1.8,4.5,76,0.00,,,0.00,WUHU21623XXSP,2013-09-08 19:03:00,
2013-09-08 14:08:00,74.5,66.4,29.03,East,90,0.0,1.8,76,0.00,,,0.00,WUHU21623XXSP,2013-09-08 19:08:00,
2013-09-08 14:13:00,74.3,66.7,29.02,SE,135,6.5,6.5,77,0.00,,,0.00,WUHU21623XXSP,2013-09-08 19:13:00,
2013-09-08 14:18:00,74.5,66.8,29.02,SE,135,3.8,6.5,77,0.00,,,0.00,WUHU21623XXSP,2013-09-08 19:18:00,
2013-09-08 14:23:00,74.5,66.8,29.01,NW,315,0.0,3.8,77,0.00,,,0.00,WUHU21623XXSP,2013-09-08 19:23:00,
2013-09-08 14:28:00,74.5,66.4,29.01,ENE,67,0.0,0.0,76,0.00,,,0.00,WUHU21623XXSP,2013-09-08 19:28:00,
2013-09-08 14:33:00,74.3,66.7,29.01,SW,225,0.0,0.0,77,0.00,,,0.00,WUHU21623XXSP,2013-09-08 19:33:00,
2013-09-08 14:38:00,74.1,66.5,29.01,East,90,0.0,0.0,77,0.00,,,0.00,WUHU21623XXSP,2013-09-08 19:38:00,
2013-09-08 14:43:00,73.9,66.7,29.01,SE,135,0.0,3.6,78,0.00,,,0.00,WUHU21623XXSP,2013-09-08 19:43:00,
2013-09-08 14:48:00,73.9,66.7,29.01,SE,135,0.0,3.6,78,0.00,,,0.00,WUHU21623XXSP,2013-09-08 19:48:00,
2013-09-08 14:53:00,74.1,66.9,29.01,East,90,0.0,0.0,78,0.00,,,0.00,WUHU21623XXSP,2013-09-08 19:53:00,
2013-09-08 14:58:00,73.9,66.7,29.01,ESE,112,0.0,0.0,78,0.00,,,0.00,WUHU21623XXSP,2013-09-08 19:58:00,
2013-09-08 15:03:00,73.9,66.7,29.01,NNE,22,2.0,2.0,78,0.00,,,0.00,WUHU21623XXSP,2013-09-08 20:03:00,
2013-09-08 15:08:00,73.2,66.0,29.00,SE,135,0.0,2.0,78,0.00,,,0.00,WUHU21623XXSP,2013-09-08 20:08:00,
2013-09-08 15:13:00,73.2,66.0,29.01,SE,135,0.0,0.0,78,0.00,,,0.00,WUHU21623XXSP,2013-09-08 20:13:00,
2013-09-08 15:18:00,73.0,66.2,29.01,NE,45,0.0,0.0,79,0.00,,,0.00,WUHU21623XXSP,2013-09-08 20:18:00,
2013-09-08 15:23:00,73.2,66.2,29.00,North,0,0.0,0.0,79,0.00,,,0.00,WUHU21623XXSP,2013-09-08 20:23:00,
2013-09-08 15:28:00,73.2,66.4,29.01,East,90,0.0,0.0,79,0.00,,,0.00,WUHU21623XXSP,2013-09-08 20:28:00,
2013-09-08 15:33:00,73.2,66.4,29.00,SE,135,0.0,0.0,79,0.00,,,0.00,WUHU21623XXSP,2013-09-08 20:33:00,
2013-09-08 15:38:00,73.2,66.4,29.00,ESE,112,3.1,3.1,79,0.00,,,0.00,WUHU21623XXSP,2013-09-08 20:38:00,
2013-09-08 15:43:00,73.2,66.4,29.00,ESE,112,5.4,5.4,79,0.00,,,0.00,WUHU21623XXSP,2013-09-08 20:43:00,
2013-09-08 15:48:00,73.2,66.4,29.00,East,90,3.8,5.4,79,0.00,,,0.00,WUHU21623XXSP,2013-09-08 20:48:00,
2013-09-08 15:53:00,73.2,66.4,29.00,ENE,67,0.0,3.8,79,0.00,,,0.00,WUHU21623XXSP,2013-09-08 20:53:00,
2013-09-08 15:58:00,73.2,66.4,29.00,SSE,157,0.0,0.0,79,0.00,,,0.00,WUHU21623XXSP,2013-09-08 20:58:00,
2013-09-08 16:03:00,73.0,66.2,28.99,ESE,112,0.0,0.0,79,0.00,,,0.00,WUHU21623XXSP,2013-09-08 21:03:00,
2013-09-08 16:08:00,72.9,66.0,28.99,NE,45,0.0,0.0,79,0.00,,,0.00,WUHU21623XXSP,2013-09-08 21:08:00,
2013-09-08 16:13:00,72.7,65.8,28.99,SE,135,0.0,0.0,79,0.00,,,0.00,WUHU21623XXSP,2013-09-08 21:13:00,
2013-09-08 16:18:00,72.7,65.8,28.98,SW,225,0.0,8.1,79,0.00,,,0.00,WUHU21623XXSP,2013-09-08 21:18:00,
2013-09-08 16:23:00,72.5,65.6,28.98,ESE,112,1.6,8.1,79,0.00,,,0.00,WUHU21623XXSP,2013-09-08 21:23:00,
2013-09-08 16:28:00,72.5,65.6,28.97,ESE,112,4.5,4.5,79,0.00,,,0.00,WUHU21623XXSP,2013-09-08 21:28:00,
2013-09-08 16:33:00,72.7,66.2,28.97,NE,45,3.1,4.5,80,0.00,,,0.00,WUHU21623XXSP,2013-09-08 21:33:00,
2013-09-08 16:38:00,72.9,65.8,28.97,SSE,157,0.0,4.5,80,0.00,,,0.00,WUHU21623XXSP,2013-09-08 21:38:00,
2013-09-08 16:43:00,73.0,66.6,28.97,SE,135,2.7,3.1,80,0.00,,,0.00,WUHU21623XXSP,2013-09-08 21:43:00,
2013-09-08 16:48:00,73.2,66.7,28.97,ESE,112,4.3,5.8,80,0.00,,,0.00,WUHU21623XXSP,2013-09-08 21:48:00,
2013-09-08 16:53:00,73.2,66.4,28.97,ESE,112,4.3,5.8,79,0.00,,,0.00,WUHU21623XXSP,2013-09-08 21:53:00,
2013-09-08 16:58:00,73.2,66.4,28.97,South,180,2.0,4.3,79,0.00,,,0.00,WUHU21623XXSP,2013-09-08 21:58:00,
2013-09-08 17:03:00,73.2,66.4,28.97,ENE,67,0.0,2.0,79,0.00,,,0.00,WUHU21623XXSP,2013-09-08 22:03:00,
2013-09-08 17:08:00,73.0,66.6,28.97,ESE,112,0.0,2.9,80,0.00,,,0.00,WUHU21623XXSP,2013-09-08 22:08:00,
2013-09-08 17:13:00,72.7,65.8,28.97,ENE,67,1.8,3.4,79,0.00,,,0.00,WUHU21623XXSP,2013-09-08 22:13:00,
2013-09-08 17:18:00,72.3,65.8,28.97,SE,135,0.0,3.4,80,0.00,,,0.00,WUHU21623XXSP,2013-09-08 22:18:00,
2013-09-08 17:23:00,72.1,65.7,28.97,East,90,1.3,1.6,80,0.00,,,0.00,WUHU21623XXSP,2013-09-08 22:23:00,
2013-09-08 17:28:00,72.0,65.5,28.97,ESE,112,2.2,2.2,80,0.00,,,0.00,WUHU21623XXSP,2013-09-08 22:28:00,
2013-09-08 17:33:00,72.0,65.8,28.97,SSE,157,0.0,2.2,81,0.00,,,0.00,WUHU21623XXSP,2013-09-08 22:33:00,
2013-09-08 17:38:00,72.1,66.0,28.97,ESE,112,0.0,2.2,81,0.00,,,0.00,WUHU21623XXSP,2013-09-08 22:38:00,
2013-09-08 17:43:00,72.0,65.8,28.97,ESE,112,2.9,2.9,81,0.00,,,0.00,WUHU21623XXSP,2013-09-08 22:43:00,
2013-09-08 17:48:00,72.0,65.8,28.97,ESE,112,2.9,2.9,81,0.00,,,0.00,WUHU21623XXSP,2013-09-08 22:48:00,
2013-09-08 17:53:00,72.0,65.8,28.97,ESE,112,0.0,2.9,81,0.00,,,0.00,WUHU21623XXSP,2013-09-08 22:53:00,
2013-09-08 17:58:00,72.0,65.8,28.97,ESE,112,0.0,0.0,81,0.00,,,0.00,WUHU21623XXSP,2013-09-08 22:58:00,
2013-09-08 18:03:00,72.1,66.0,28.96,ESE,112,0.0,0.0,81,0.00,,,0.00,WUHU21623XXSP,2013-09-08 23:03:00,
2013-09-08 18:08:00,72.1,66.0,28.96,East,90,0.0,0.0,81,0.00,,,0.00,WUHU21623XXSP,2013-09-08 23:08:00,
2013-09-08 18:13:00,72.1,66.0,28.96,East,90,0.0,0.0,81,0.00,,,0.00,WUHU21623XXSP,2013-09-08 23:13:00,
2013-09-08 18:18:00,72.0,66.0,28.96,East,90,0.0,0.0,81,0.00,,,0.00,WUHU21623XXSP,2013-09-08 23:18:00,
2013-09-08 18:23:00,71.8,65.8,28.97,East,90,0.0,0.0,81,0.00,,,0.00,WUHU21623XXSP,2013-09-08 23:23:00,
2013-09-08 18:28:00,71.8,66.0,28.97,East,90,0.0,0.0,82,0.00,,,0.00,WUHU21623XXSP,2013-09-08 23:28:00,
2013-09-08 18:33:00,71.4,65.6,28.96,ENE,67,0.0,0.0,82,0.00,,,0.00,WUHU21623XXSP,2013-09-08 23:33:00,
2013-09-08 18:38:00,71.4,65.6,28.96,East,90,0.0,0.0,82,0.00,,,0.00,WUHU21623XXSP,2013-09-08 23:38:00,
2013-09-08 18:43:00,71.4,66.0,28.96,SE,135,0.0,0.0,83,0.00,,,0.00,WUHU21623XXSP,2013-09-08 23:43:00,
2013-09-08 18:48:00,71.2,65.8,28.96,East,90,0.0,0.0,83,0.00,,,0.00,WUHU21623XXSP,2013-09-08 23:48:00,
2013-09-08 18:53:00,71.2,65.8,28.96,ENE,67,0.0,0.0,83,0.00,,,0.00,WUHU21623XXSP,2013-09-08 23:53:00,
2013-09-08 18:58:00,71.2,65.8,28.96,ESE,112,0.0,0.0,83,0.00,,,0.00,WUHU21623XXSP,2013-09-08 23:58:00,
2013-09-08 19:03:00,71.1,65.6,28.96,ESE,112,0.0,0.0,83,0.00,,,0.00,WUHU21623XXSP,2013-09-09 00:03:00,
2013-09-08 19:08:00,70.9,65.4,28.96,SE,135,0.0,0.0,83,0.00,,,0.00,WUHU21623XXSP,2013-09-09 00:08:00,
2013-09-08 19:13:00,70.7,65.6,28.96,ESE,112,0.0,0.0,84,0.00,,,0.00,WUHU21623XXSP,2013-09-09 00:13:00,
2013-09-08 19:18:00,70.5,65.4,28.96,SE,135,0.0,1.3,84,0.00,,,0.00,WUHU21623XXSP,2013-09-09 00:18:00,
2013-09-08 19:23:00,70.3,65.4,28.96,SE,135,0.0,1.3,84,0.00,,,0.00,WUHU21623XXSP,2013-09-09 00:23:00,
2013-09-08 19:28:00,70.3,65.6,28.96,SE,135,0.0,0.0,85,0.00,,,0.00,WUHU21623XXSP,2013-09-09 00:28:00,
2013-09-08 19:33:00,70.3,65.6,28.96,ESE,112,0.0,0.0,85,0.00,,,0.00,WUHU21623XXSP,2013-09-09 00:33:00,
2013-09-08 19:38:00,70.3,65.6,28.97,ENE,67,0.0,0.0,85,0.00,,,0.00,WUHU21623XXSP,2013-09-09 00:38:00,
2013-09-08 19:43:00,70.3,65.6,28.97,ESE,112,0.0,0.0,85,0.00,,,0.00,WUHU21623XXSP,2013-09-09 00:43:00,
2013-09-08 19:48:00,70.2,65.4,28.96,East,90,0.0,0.0,85,0.00,,,0.00,WUHU21623XXSP,2013-09-09 00:48:00,
2013-09-08 19:53:00,70.2,65.7,28.97,SSE,157,0.0,0.0,86,0.00,,,0.00,WUHU21623XXSP,2013-09-09 00:53:00,
2013-09-08 19:58:00,70.0,65.6,28.96,SSW,202,0.0,0.0,86,0.00,,,0.00,WUHU21623XXSP,2013-09-09 00:58:00,
2013-09-08 20:03:00,69.8,65.6,28.96,SSW,202,0.0,0.0,86,0.00,,,0.00,WUHU21623XXSP,2013-09-09 01:03:00,
2013-09-08 20:08:00,70.0,65.6,28.96,NE,45,0.0,0.0,86,0.00,,,0.00,WUHU21623XXSP,2013-09-09 01:08:00,
2013-09-08 20:13:00,69.8,65.4,28.96,SSW,202,0.0,0.0,86,0.00,,,0.00,WUHU21623XXSP,2013-09-09 01:13:00,
2013-09-08 20:18:00,69.8,65.4,28.97,WNW,292,0.0,0.0,86,0.00,,,0.00,WUHU21623XXSP,2013-09-09 01:18:00,
2013-09-08 20:23:00,69.6,65.2,28.97,SSW,202,0.0,0.0,86,0.00,,,0.00,WUHU21623XXSP,2013-09-09 01:23:00,
2013-09-08 20:28:00,69.8,65.4,28.96,WNW,292,0.0,0.0,86,0.00,,,0.00,WUHU21623XXSP,2013-09-09 01:28:00,
2013-09-08 20:33:00,69.8,65.4,28.96,West,270,0.0,0.0,86,0.00,,,0.00,WUHU21623XXSP,2013-09-09 01:33:00,
2013-09-08 20:38:00,69.6,65.2,28.97,West,270,0.0,0.0,86,0.00,,,0.00,WUHU21623XXSP,2013-09-09 01:38:00,
2013-09-08 20:43:00,69.6,65.5,28.96,SW,225,0.0,0.0,87,0.00,,,0.00,WUHU21623XXSP,2013-09-09 01:43:00,
2013-09-08 20:48:00,69.6,65.5,28.96,North,0,0.0,0.0,87,0.00,,,0.00,WUHU21623XXSP,2013-09-09 01:48:00,
2013-09-08 20:53:00,69.6,65.5,28.96,WNW,292,0.0,0.0,87,0.00,,,0.00,WUHU21623XXSP,2013-09-09 01:53:00,
2013-09-08 20:58:00,69.6,65.5,28.97,WNW,292,0.0,0.0,87,0.00,,,0.00,WUHU21623XXSP,2013-09-09 01:58:00,
2013-09-08 21:03:00,69.4,65.4,28.96,North,0,0.0,0.0,87,0.00,,,0.00,WUHU21623XXSP,2013-09-09 02:03:00,
2013-09-08 21:08:00,69.4,65.4,28.96,NW,315,0.0,0.0,87,0.00,,,0.00,WUHU21623XXSP,2013-09-09 02:08:00,
2013-09-08 21:13:00,69.4,65.4,28.96,WSW,247,0.0,0.0,87,0.00,,,0.00,WUHU21623XXSP,2013-09-09 02:13:00,
2013-09-08 21:18:00,69.4,65.4,28.95,WSW,247,0.0,0.0,87,0.00,,,0.00,WUHU21623XXSP,2013-09-09 02:18:00,
2013-09-08 21:23:00,69.4,65.4,28.95,WSW,247,0.0,0.0,87,0.00,,,0.00,WUHU21623XXSP,2013-09-09 02:23:00,
2013-09-08 21:28:00,69.3,65.7,28.95,WNW,292,0.0,0.0,88,0.00,,,0.00,WUHU21623XXSP,2013-09-09 02:28:00,
2013-09-08 21:33:00,69.3,65.5,28.95,NNE,22,0.0,0.0,88,0.00,,,0.00,WUHU21623XXSP,2013-09-09 02:33:00,
2013-09-08 21:38:00,69.3,65.5,28.95,WSW,247,0.0,0.0,88,0.00,,,0.00,WUHU21623XXSP,2013-09-09 02:38:00,
2013-09-08 21:43:00,69.3,65.5,28.96,SE,135,0.0,0.0,88,0.00,,,0.00,WUHU21623XXSP,2013-09-09 02:43:00,
2013-09-08 21:48:00,69.3,65.5,28.95,West,270,0.0,0.0,88,0.00,,,0.00,WUHU21623XXSP,2013-09-09 02:48:00,
2013-09-08 21:53:00,69.3,65.5,28.96,WNW,292,0.0,0.0,88,0.00,,,0.00,WUHU21623XXSP,2013-09-09 02:53:00,
2013-09-08 21:58:00,69.4,65.7,28.95,NE,45,0.0,0.0,88,0.00,,,0.00,WUHU21623XXSP,2013-09-09 02:58:00,
2013-09-08 22:03:00,69.4,65.7,28.95,NE,45,0.0,0.0,88,0.00,,,0.00,WUHU21623XXSP,2013-09-09 03:03:00,
2013-09-08 22:08:00,69.3,65.5,28.96,ESE,112,0.0,0.0,88,0.00,,,0.00,WUHU21623XXSP,2013-09-09 03:08:00,
2013-09-08 22:13:00,69.1,65.5,28.96,East,90,0.0,0.0,88,0.00,,,0.00,WUHU21623XXSP,2013-09-09 03:13:00,
2013-09-08 22:18:00,69.1,65.3,28.96,South,180,0.0,0.0,88,0.00,,,0.00,WUHU21623XXSP,2013-09-09 03:18:00,
2013-09-08 22:23:00,69.1,65.3,28.96,ENE,67,0.0,0.0,88,0.00,,,0.00,WUHU21623XXSP,2013-09-09 03:23:00,
2013-09-08 22:28:00,68.9,65.2,28.96,NNE,22,0.0,0.0,88,0.00,,,0.00,WUHU21623XXSP,2013-09-09 03:28:00,
2013-09-08 22:33:00,68.7,65.0,28.95,South,180,0.0,0.0,89,0.00,,,0.00,WUHU21623XXSP,2013-09-09 03:33:00,
2013-09-08 22:38:00,68.7,65.3,28.95,South,180,0.0,0.0,89,0.00,,,0.00,WUHU21623XXSP,2013-09-09 03:38:00,
2013-09-08 22:43:00,68.5,65.1,28.95,SE,135,0.0,0.0,89,0.00,,,0.00,WUHU21623XXSP,2013-09-09 03:43:00,
2013-09-08 22:48:00,68.4,65.0,28.95,SSE,157,0.0,0.0,89,0.00,,,0.00,WUHU21623XXSP,2013-09-09 03:48:00,
2013-09-08 22:53:00,68.4,65.0,28.96,SSE,157,0.0,0.0,89,0.00,,,0.00,WUHU21623XXSP,2013-09-09 03:53:00,
2013-09-08 22:58:00,68.2,64.8,28.95,NE,45,0.0,0.0,89,0.00,,,0.00,WUHU21623XXSP,2013-09-09 03:58:00,
2013-09-08 23:01:00,68.2,64.8,28.95,NE,45,0.0,0.0,89,0.00,,,0.00,WUHU21623XXSP,2013-09-09 04:01:00,
2013-09-08 23:06:00,68.0,64.6,28.96,ESE,112,0.0,0.0,89,0.00,,,0.00,WUHU21623XXSP,2013-09-09 04:06:00,
2013-09-08 23:11:00,67.8,64.4,28.96,South,180,0.0,0.0,89,0.00,,,0.00,WUHU21623XXSP,2013-09-09 04:11:00,
2013-09-08 23:16:00,67.8,64.8,28.96,ESE,112,0.0,0.0,90,0.00,,,0.00,WUHU21623XXSP,2013-09-09 04:16:00,
2013-09-08 23:21:00,67.8,64.8,28.96,ESE,112,0.0,0.0,90,0.00,,,0.00,WUHU21623XXSP,2013-09-09 04:21:00,
2013-09-08 23:26:00,67.6,64.6,28.95,SSE,157,0.0,0.0,90,0.00,,,0.00,WUHU21623XXSP,2013-09-09 04:26:00,
2013-09-08 23:31:00,67.6,64.6,28.95,SE,135,0.0,0.0,90,0.00,,,0.00,WUHU21623XXSP,2013-09-09 04:31:00,
2013-09-08 23:36:00,67.6,64.6,28.95,SE,135,0.0,0.0,90,0.00,,,0.00,WUHU21623XXSP,2013-09-09 04:36:00,
2013-09-08 23:41:00,67.6,64.6,28.95,ESE,112,0.0,0.0,90,0.00,,,0.00,WUHU21623XXSP,2013-09-09 04:41:00,
2013-09-08 23:46:00,67.5,64.4,28.95,ESE,112,0.0,0.0,90,0.00,,,0.00,WUHU21623XXSP,2013-09-09 04:46:00,
2013-09-08 23:51:00,67.3,64.2,28.95,ESE,112,0.0,0.0,91,0.00,,,0.00,WUHU21623XXSP,2013-09-09 04:51:00,
2013-09-08 23:56:00,67.3,64.5,28.95,East,90,0.0,0.0,91,0.00,,,0.00,WUHU21623XXSP,2013-09-09 04:56:00,